Location: Recife
(8.0585°S, 34.8848°W)
Time: 10:12:57
(UTC-03:00)

Transit 4A - Pass Details

Date: 23 April 2026
Orbit: 861 x 980 km, 66.8° (Epoch: 14 May)

Event Time Altitude Azimuth Distance (km) Brightness Sun altitude
Rises 09:17:51 0° 171° (S) 3,444 10.7 53.7°
Reaches altitude 10° 09:21:23 10° 149° (SSE) 2,511 10.3 54.4°
Maximum altitude 09:24:46 16° 113° (ESE) 2,130 10.3 55.1°
Drops below altitude 10° 09:28:10 10° 77° (ENE) 2,530 10.9 55.8°
Sets 09:31:43 0° 56° (NE) 3,485 11.4 56.5°
